H1 CPF 2 NER 2024 6 6 9 158 01 glonass142 H2 2001801 9142 45358 2024 6 6 0 0 0 2024 6 9 23 45 0 900 1 1 0 0 0 1 H9 10 0 60467 0.00000 0 -6742604.237 -23037924.017 8614567.657 10 0 60467 900.00000 0 -7013939.985 -23880708.485 5554967.114 10 0 60467 1800.00000 0 -7263645.019 -24327107.434 2387372.294 10 0 60467 2700.00000 0 -7435779.506 -24376782.943 -826643.475 10 0 60467 3600.00000 0 -7476409.593 -24042648.606 -4024581.537 10 0 60467 4500.00000 0 -7336128.399 -23350249.450 -7144239.033 10 0 60467 5400.00000 0 -6972392.986 -22336628.596 -10124925.513 10 0 60467 6300.00000 0 -6351577.029 -21048728.545 -12908650.521 10 0 60467 7200.00000 0 -5450651.020 -19541394.776 -15441258.201 10 0 60467 8100.00000 0 -4258417.568 -17875066.178 -17673486.144 10 0 60467 9000.00000 0 -2776248.337 -16113249.980 -19561927.384 10 0 60467 9900.00000 0 -1018290.305 -14319887.853 -21069876.527 10 0 60467 10800.00000 0 988868.438 -12556724.173 -22168043.521 10 0 60467 11700.00000 0 3207060.321 -10880787.034 -22835121.387 10 0 60467 12600.00000 0 5587892.084 -9342087.558 -23058197.187 10 0 60467 13500.00000 0 8074534.780 -7981633.544 -22832998.691 10 0 60467 14400.00000 0 10603875.857 -6829839.916 -22163972.406 10 0 60467 15300.00000 0 13108943.980 -5905401.670 -21064191.886 10 0 60467 16200.00000 0 15521505.949 -5214675.296 -19555098.457 10 0 60467 17100.00000 0 17774727.932 -4751593.310 -17666079.666 10 0 60467 18000.00000 0 19805790.471 -4498114.045 -15433893.824 10 0 60467 18900.00000 0 21558348.730 -4425186.388 -12901951.970 10 0 60467 19800.00000 0 22984735.868 -4494187.541 -10119471.254 10 0 60467 20700.00000 0 24047818.148 -4658772.044 -7140516.322 10 0 60467 21600.00000 0 24722424.924 -4867053.045 -4022947.427 10 0 60467 22500.00000 0 24996294.500 -5064022.908 -827295.826 10 0 60467 23400.00000 0 24870497.041 -5194110.260 2384411.512 10 0 60467 24300.00000 0 24359317.675 -5203764.928 5549854.899 10 0 60467 25200.00000 0 23489605.449 -5043961.179 8607629.219 10 0 60467 26100.00000 0 22299616.144 -4672513.213 11498432.007 10 0 60467 27000.00000 0 20837397.983 -4056104.915 14166209.427 10 0 60467 27900.00000 0 19158788.178 -3171947.894 16559238.219 10 0 60467 28800.00000 0 17325104.333 -2008997.567 18631123.034 10 0 60467 29700.00000 0 15400627.129 -568675.473 20341690.410 10 0 60467 30600.00000 0 13449979.124 1134933.358 21657762.740 10 0 60467 31500.00000 0 11535508.563 3075417.370 22553797.831 10 0 60467 32400.00000 0 9714786.674 5214897.032 23012382.278 10 0 60467 33300.00000 0 8038321.952 7505370.667 23024569.486 10 0 60467 34200.00000 0 6547585.977 9890493.027 22590055.958 10 0 60467 35100.00000 0 5273432.291 12307714.205 21717192.331 10 0 60467 36000.00000 0 4234973.577 14690691.349 20422828.559 10 0 60467 36900.00000 0 3438963.529 16971874.168 18731995.574 10 0 60467 37800.00000 0 2879708.793 19085157.617 16677428.783 10 0 60467 38700.00000 0 2539514.362 20968492.046 14298941.633 10 0 60467 39600.00000 0 2389643.521 22566342.275 11642660.524 10 0 60467 40500.00000 0 2391751.774 23831893.010 8760135.032 10 0 60467 41400.00000 0 2499734.114 24728908.142 5707340.143 10 0 60467 42300.00000 0 2661907.366 25233165.595 2543589.542 10 0 60467 43200.00000 0 2823434.880 25333407.030 -669618.906 10 0 60467 44100.00000 0 2928890.317 25031761.970 -3869802.776 10 0 60467 45000.00000 0 2924851.088 24343628.028 -6994715.839 10 0 60467 45900.00000 0 2762410.548 23297011.977 -9983565.492 10 0 60467 46800.00000 0 2399501.332 21931359.228 -12778202.336 10 0 60467 47700.00000 0 1802930.175 20295921.032 -15324257.903 10 0 60467 48600.00000 0 950036.846 18447728.294 -17572207.702 10 0 60467 49500.00000 0 -170094.219 16449257.466 -19478338.400 10 0 60467 50400.00000 0 -1555921.885 14365886.909 -21005600.000 10 0 60467 51300.00000 0 -3193267.020 12263250.715 -22124326.392 10 0 60467 52200.00000 0 -5055670.523 10204601.027 -22812810.478 10 0 60467 53100.00000 0 -7105276.500 8248289.238 -23057722.959 10 0 60467 54000.00000 0 -9294204.296 6445471.100 -22854367.112 10 0 60467 54900.00000 0 -11566352.586 4838131.063 -22206765.074 10 0 60467 55800.00000 0 -13859560.591 3457507.536 -21127574.369 10 0 60467 56700.00000 0 -16108036.590 2322983.686 -19637836.698 10 0 60467 57600.00000 0 -18244952.718 1441488.784 -17766564.117 10 0 60467 58500.00000 0 -20205098.050 807433.621 -15550170.859 10 0 60467 59400.00000 0 -21927479.544 403181.044 -13031761.939 10 0 60467 60300.00000 0 -23357762.557 200030.262 -10260292.468 10 0 60467 61200.00000 0 -24450449.287 159672.000 -7289614.085 10 0 60467 62100.00000 0 -25170704.470 236051.870 -4177427.160 10 0 60467 63000.00000 0 -25495752.427 377562.234 -984159.233 10 0 60467 63900.00000 0 -25415787.464 529469.086 2228208.318 10 0 60467 64800.00000 0 -24934360.039 636470.752 5397342.455 10 0 60467 65700.00000 0 -24068223.083 645279.778 8461766.077 10 0 60467 66600.00000 0 -22846645.391 507118.550 11362047.530 10 0 60467 67500.00000 0 -21310221.215 180022.998 14041949.105 10 0 60467 68400.00000 0 -19509226.147 -369143.075 16449512.538 10 0 60467 69300.00000 0 -17501588.043 -1163048.248 18538060.859 10 0 60467 70200.00000 0 -15350557.633 -2212697.777 20267097.777 10 0 60467 71100.00000 0 -13122175.583 -3516732.814 21603087.837 10 0 60467 72000.00000 0 -10882641.055 -5061254.849 22520102.843 10 0 60467 72900.00000 0 -8695690.611 -6820183.830 23000322.652 10 0 60467 73800.00000 0 -6620095.676 -8756136.370 23034381.027 10 0 60467 74700.00000 0 -4707381.840 -10821788.836 22621550.027 10 0 60467 75600.00000 0 -2999863.987 -12961670.051 21769759.256 10 0 60467 76500.00000 0 -1529078.221 -15114310.408 20495449.216 10 0 60467 77400.00000 0 -314675.261 -17214659.190 18823260.938 10 0 60467 78300.00000 0 636179.183 -19196670.468 16785567.076 10 0 60467 79200.00000 0 1328872.445 -20995950.540 14421852.575 10 0 60467 80100.00000 0 1780878.927 -22552356.827 11777956.020 10 0 60467 81000.00000 0 2020780.034 -23812439.675 8905185.543 10 0 60467 81900.00000 0 2086811.603 -24731624.639 5859325.816 10 0 60467 82800.00000 0 2025000.471 -25276043.246 2699555.125 10 0 60467 83700.00000 0 1886969.402 -25423934.711 -512706.459 10 0 60467 84600.00000 0 1727503.826 -25166558.954 -3714995.147 10 0 60467 85500.00000 0 1601984.242 -24508581.741 -6845023.813 10 0 60468 0.00000 0 1563794.005 -23467915.216 -9841899.978 10 0 60468 900.00000 0 1661813.395 -22075019.415 -12647318.412 10 0 60468 1800.00000 0 1938107.350 -20371695.328 -15206700.336 10 0 60468 2700.00000 0 2425905.829 -18409418.312 -17470261.697 10 0 60468 3600.00000 0 3147963.490 -16247283.203 -19393985.168 10 0 60468 4500.00000 0 4115369.023 -13949647.047 -20940478.281 10 0 60468 5400.00000 0 5326855.363 -11583568.471 -22079700.699 10 0 60468 6300.00000 0 6768640.735 -9216150.957 -22789546.634 10 0 60468 7200.00000 0 8414807.958 -6911901.081 -23056271.432 10 0 60468 8100.00000 0 10228206.757 -4730211.765 -22874754.453 10 0 60468 9000.00000 0 12161841.786 -2723075.068 -22248593.599 10 0 60468 9900.00000 0 14160688.654 -933119.149 -21190030.101 10 0 60468 10800.00000 0 16163862.349 607949.778 -19719705.370 10 0 60468 11700.00000 0 18107047.630 1880436.815 -17866254.929 10 0 60468 12600.00000 0 19925090.000 2877235.089 -15665747.488 10 0 60468 13500.00000 0 21554639.090 3603867.374 -13160980.216 10 0 60468 14400.00000 0 22936734.097 4077992.647 -10400643.955 10 0 60468 15300.00000 0 24019223.225 4328399.982 -7438374.731 10 0 60468 16200.00000 0 24758916.060 4393533.731 -4331710.095 10 0 60468 17100.00000 0 25123378.971 4319613.491 -1140970.687 10 0 60468 18000.00000 0 25092298.546 4158429.342 2071911.050 10 0 60468 18900.00000 0 24658356.239 3964906.350 5244592.102 10 0 60468 19800.00000 0 23827577.855 3794541.869 8315526.692 10 0 60468 20700.00000 0 22619143.472 3700824.374 11225157.117 10 0 60468 21600.00000 0 21064665.964 3732743.102 13917064.697 10 0 60468 22500.00000 0 19206968.331 3932493.808 16339058.767 10 0 60468 23400.00000 0 17098410.866 4333477.541 18444183.019 10 0 60468 24300.00000 0 14798837.688 4958676.953 20191620.265 10 0 60468 25200.00000 0 12373227.781 5819478.810 21547478.765 10 0 60468 26100.00000 0 9889147.705 6914992.718 22485445.487 10 0 60468 27000.00000 0 7414111.140 8231895.464 22987294.290 10 0 60468 27900.00000 0 5012954.060 9744808.559 23043239.575 10 0 60468 28800.00000 0 2745333.676 11417194.437 22652128.728 10 0 60468 29700.00000 0 663454.039 13202735.284 21821469.580 10 0 60468 30600.00000 0 -1189888.071 15047138.363 20567291.917 10 0 60468 31500.00000 0 -2782856.502 16890293.813 18913845.114 10 0 60468 32400.00000 0 -4095664.347 18668696.013 16893136.879 10 0 60468 33300.00000 0 -5121153.005 20318028.264 14544321.113 10 0 60468 34200.00000 0 -5864837.988 21775803.262 11912945.778 10 0 60468 35100.00000 0 -6344419.989 22983949.007 9050074.569 10 0 60468 36000.00000 0 -6588782.184 23891231.602 6011298.752 10 0 60468 36900.00000 0 -6636516.447 24455412.732 2855658.084 10 0 60468 37800.00000 0 -6534041.148 24645050.429 -355508.261 10 0 60468 38700.00000 0 -6333390.725 24440866.469 -3559758.147 10 0 60468 39600.00000 0 -6089771.293 23836621.876 -6694766.428 10 0 60468 40500.00000 0 -5858986.701 22839462.740 -9699543.921 10 0 60468 41400.00000 0 -5694845.048 21469720.995 -12515630.888 10 0 60468 42300.00000 0 -5646656.587 19760177.885 -15088240.879 10 0 60468 43200.00000 0 -5756930.032 17754820.659 -17367332.033 10 0 60468 44100.00000 0 -6059365.761 15507144.435 -19308584.451 10 0 60468 45000.00000 0 -6577231.709 13078070.386 -20874264.294 10 0 60468 45900.00000 0 -7322191.344 10533567.389 -22033957.760 10 0 60468 46800.00000 0 -8293633.883 7942076.619 -22765160.833 10 0 60468 47700.00000 0 -9478535.520 5371846.568 -23053713.627 10 0 60468 48600.00000 0 -10851857.999 2888289.479 -22894071.352 10 0 60468 49500.00000 0 -12377468.163 551468.908 -22289407.075 10 0 60468 50400.00000 0 -14009540.194 -1586177.513 -21251544.725 10 0 60468 51300.00000 0 -15694381.966 -3481786.222 -19800724.025 10 0 60468 52200.00000 0 -17372609.155 -5103606.802 -17965202.189 10 0 60468 53100.00000 0 -18981576.126 -6432069.179 -15780700.321 10 0 60468 54000.00000 0 -20457961.819 -7460336.067 -13289705.409 10 0 60468 54900.00000 0 -21740402.365 -8194319.259 -10540641.547 10 0 60468 55800.00000 0 -22772060.074 -8652160.894 -7586926.587 10 0 60468 56700.00000 0 -23503021.141 -8863203.190 -4485932.684 10 0 60468 57600.00000 0 -23892421.542 -8866491.596 -1297871.021 10 0 60468 58500.00000 0 -23910211.984 -8708875.760 1915377.409 10 0 60468 59400.00000 0 -23538487.936 -8442789.571 5091462.098 10 0 60468 60300.00000 0 -22772329.019 -8123804.773 8168771.018 10 0 60468 61200.00000 0 -21620112.598 -7808062.068 11087622.788 10 0 60468 62100.00000 0 -20103288.408 -7549688.489 13791420.023 10 0 60468 63000.00000 0 -18255623.499 -7398310.195 16227741.781 10 0 60468 63900.00000 0 -16121948.796 -7396765.646 18349354.327 10 0 60468 64800.00000 0 -13756459.155 -7579115.515 20115121.209 10 0 60468 65700.00000 0 -11220637.126 -7969033.170 21490795.696 10 0 60468 66600.00000 0 -8580886.095 -8578643.614 22449680.841 10 0 60468 67500.00000 0 -5905970.263 -9407860.054 22973145.027 10 0 60468 68400.00000 0 -3264366.725 -10444246.622 23050983.412 10 0 60468 69300.00000 0 -721638.548 -11663413.877 22681618.470 10 0 60468 70200.00000 0 1662063.246 -13029931.710 21872135.660 10 0 60468 71100.00000 0 3834266.089 -14498722.673 20638153.155 10 0 60468 72000.00000 0 5752117.376 -16016878.712 19003527.488 10 0 60468 72900.00000 0 7383921.116 -17525826.472 16999899.986 10 0 60468 73800.00000 0 8710206.345 -18963751.497 14666091.803 10 0 60468 74700.00000 0 9724283.202 -20268180.417 12047358.348 10 0 60468 75600.00000 0 10432263.881 -21378613.160 9194516.714 10 0 60468 76500.00000 0 10852548.013 -22239094.616 6162962.413 10 0 60468 77400.00000 0 11014794.519 -22800617.215 3011594.172 10 0 60468 78300.00000 0 10958423.776 -23023252.630 -198332.327 10 0 60468 79200.00000 0 10730713.896 -22877921.830 -3404399.236 10 0 60468 80100.00000 0 10384572.260 -22347727.844 -6544246.004 10 0 60468 81000.00000 0 9976077.436 -21428793.897 -9556789.077 10 0 60468 81900.00000 0 9561896.441 -20130570.548 -12383417.239 10 0 60468 82800.00000 0 9196687.660 -18475597.928 -14969138.495 10 0 60468 83700.00000 0 8930600.358 -16498732.325 -17263655.426 10 0 60468 84600.00000 0 8806977.440 -14245868.989 -19222347.617 10 0 60468 85500.00000 0 8860359.452 -11772214.386 -20807141.644 10 0 60469 0.00000 0 9114874.710 -9140180.200 -21987251.631 10 0 60469 900.00000 0 9583084.194 -6416985.533 -22739776.642 10 0 60469 1800.00000 0 10265329.890 -3672070.784 -23050142.136 10 0 60469 2700.00000 0 11149614.666 -974426.115 -22912379.463 10 0 60469 3600.00000 0 12212018.628 1610051.128 -22329236.735 10 0 60469 4500.00000 0 13417634.576 4021061.968 -21312120.090 10 0 60469 5400.00000 0 14721983.294 6206170.595 -19880866.712 10 0 60469 6300.00000 0 16072849.213 8122735.161 -18063354.318 10 0 60469 7200.00000 0 17412459.332 9739425.379 -15894954.888 10 0 60469 8100.00000 0 18679913.856 11037265.097 -13417843.390 10 0 60469 9000.00000 0 19813766.444 12010157.953 -10680174.993 10 0 60469 9900.00000 0 20754645.585 12664875.810 -7735146.907 10 0 60469 10800.00000 0 21447806.928 13020512.229 -4639963.150 10 0 60469 11700.00000 0 21845509.228 13107425.580 -1454722.503 10 0 60469 12600.00000 0 21909114.007 12965717.777 1758748.555 10 0 60469 13500.00000 0 21610820.615 12643313.971 4938095.111 10 0 60469 14400.00000 0 20934963.740 12193725.209 8021641.915 10 0 60469 15300.00000 0 19878818.750 11673589.110 10949586.788 10 0 60469 16200.00000 0 18452880.886 11140092.815 13665156.325 10 0 60469 17100.00000 0 16680606.289 10648387.024 16115701.751 10 0 60469 18000.00000 0 14597625.253 10249100.187 18253714.087 10 0 60469 18900.00000 0 12250459.946 9986057.413 20037739.523 10 0 60469 19800.00000 0 9694799.256 9894299.921 21433177.946 10 0 60469 20700.00000 0 6993401.705 9998488.231 22412949.777 10 0 60469 21600.00000 0 4213712.489 10311756.193 22958018.834 10 0 60469 22500.00000 0 1425292.444 10835064.180 23057761.525 10 0 60469 23400.00000 0 -1302835.551 11557079.087 22710175.427 10 0 60469 24300.00000 0 -3904813.864 12454586.854 21921923.133 10 0 60469 25200.00000 0 -6320443.217 13493421.172 20708210.164 10 0 60469 26100.00000 0 -8497439.041 14629870.488 19092498.637 10 0 60469 27000.00000 0 -10393358.174 15812505.350 17106061.435 10 0 60469 27900.00000 0 -11977116.357 16984350.419 14787384.490 10 0 60469 28800.00000 0 -13230033.745 18085310.702 12181427.856 10 0 60469 29700.00000 0 -14146365.174 19054750.466 9338759.027 10 0 60469 30600.00000 0 -14733293.323 19834116.485 6314574.640 10 0 60469 31500.00000 0 -15010385.377 20369494.821 3167629.252 10 0 60469 32400.00000 0 -15008536.472 20613992.789 -40908.049 10 0 60469 33300.00000 0 -14768444.940 20529844.689 -3248646.720 10 0 60469 34200.00000 0 -14338684.315 20090151.332 -6393193.702 10 0 60469 35100.00000 0 -13773454.315 19280178.723 -9413373.776 10 0 60469 36000.00000 0 -13130106.746 18098159.845 -12250426.757 10 0 60469 36900.00000 0 -12466551.879 16555564.568 -14849157.328 10 0 60469 37800.00000 0 -11838655.906 14676825.270 -17159014.435 10 0 60469 38700.00000 0 -11297740.331 12498528.797 -19135078.721 10 0 60469 39600.00000 0 -10888289.678 10068108.003 -20738938.417 10 0 60469 40500.00000 0 -10645964.852 7442087.146 -21939436.614 10 0 60469 41400.00000 0 -10596006.281 4683954.113 -22713275.546 10 0 60469 42300.00000 0 -10752094.331 1861747.999 -23045466.419 10 0 60469 43200.00000 0 -11115714.959 -954537.695 -22929616.502 10 0 60469 44100.00000 0 -11676057.172 -3695628.485 -22368048.348 10 0 60469 45000.00000 0 -12410446.343 -6295608.184 -21371749.299 10 0 60469 45900.00000 0 -13285294.888 -8694414.860 -19960152.611 10 0 60469 46800.00000 0 -14257530.022 -10840090.541 -18160754.749 10 0 60469 47700.00000 0 -15276438.267 -12690691.973 -16008576.503 10 0 60469 48600.00000 0 -16285848.856 -14215784.128 -13545478.500 10 0 60469 49500.00000 0 -17226563.975 -15397455.552 -10819344.514 10 0 60469 50400.00000 0 -18038933.342 -16230814.659 -7883148.541 10 0 60469 51300.00000 0 -18665464.569 -16723947.852 -4793923.877 10 0 60469 52200.00000 0 -19053359.269 -16897342.826 -1611654.328 10 0 60469 53100.00000 0 -19156867.941 -16782802.811 1601890.671 10 0 60469 54000.00000 0 -18939364.371 -16421898.783 4784354.289 10 0 60469 54900.00000 0 -18375052.070 -15864025.933 7874000.487 10 0 60469 55800.00000 0 -17450230.768 -15164147.139 10810908.663 10 0 60469 56700.00000 0 -16164069.474 -14380319.080 13538131.664 10 0 60469 57600.00000 0 -14528853.211 -13571105.481 16002795.025 10 0 60469 58500.00000 0 -12569692.565 -12792986.483 18157116.462 10 0 60469 59400.00000 0 -10323707.411 -12097872.948 19959326.495 10 0 60469 60300.00000 0 -7838717.976 -11530829.928 21374473.005 10 0 60469 61200.00000 0 -5171496.689 -11128104.618 22375094.803 10 0 60469 62100.00000 0 -2385652.317 -10915541.288 22941751.800 10 0 60469 63000.00000 0 450767.076 -10907449.529 23063401.936 10 0 60469 63900.00000 0 3267854.146 -11105973.335 22737617.811 10 0 60469 64800.00000 0 5996499.610 -11500987.722 21970638.734 10 0 60469 65700.00000 0 8571017.902 -12070527.730 20777256.837 10 0 60469 66600.00000 0 10931633.192 -12781732.487 19180538.799 10 0 60469 67500.00000 0 13026723.436 -13592265.476 17211387.735 10 0 60469 68400.00000 0 14814729.735 -14452152.182 14907952.745 10 0 60469 69300.00000 0 16265651.940 -15305958.498 12314896.623 10 0 60469 70200.00000 0 17362068.369 -16095218.703 9482535.051 10 0 60469 71100.00000 0 18099637.216 -16761010.903 6465863.308 10 0 60469 72000.00000 0 18487058.812 -17246571.152 3323489.054 10 0 60469 72900.00000 0 18545500.565 -17499835.399 116491.885 10 0 60469 73800.00000 0 18307509.123 -17475801.087 -3092767.941 10 0 60469 74700.00000 0 17815456.049 -17138607.518 -6241867.831 10 0 60469 75600.00000 0 17119583.226 -16463245.835 -9269543.790 10 0 60469 76500.00000 0 16275731.236 -15436825.040 -12116889.384 10 0 60469 77400.00000 0 15342847.513 -14059339.280 -14728508.504 10 0 60469 78300.00000 0 14380380.354 -12343902.789 -17053598.750 10 0 60469 79200.00000 0 13445669.636 -10316441.466 -19046943.850 10 0 60469 80100.00000 0 12591445.042 -8014853.076 -20669795.406 10 0 60469 81000.00000 0 11863537.773 -5487670.519 -21890626.783 10 0 60469 81900.00000 0 11298902.477 -2792283.455 -22685744.615 10 0 60469 82800.00000 0 10924032.705 7207.895 -23039746.355 10 0 60469 83700.00000 0 10753836.373 2842417.700 -22945815.407 10 0 60469 84600.00000 0 10791018.151 5643277.628 -22405848.586 10 0 60469 85500.00000 0 11025994.209 8340710.223 -21430413.869 10 0 60470 0.00000 0 11437342.231 10869261.649 -20038539.792 10 0 60470 900.00000 0 11992767.380 13169586.309 -18257340.038 10 0 60470 1800.00000 0 12650542.338 15190677.397 -16121482.696 10 0 60470 2700.00000 0 13361360.971 16891756.002 -13672512.122 10 0 60470 3600.00000 0 14070526.544 18243737.731 -10958038.454 10 0 60470 4500.00000 0 14720382.016 19230218.319 -8030809.948 10 0 60470 5400.00000 0 15252879.619 19847938.162 -4947686.396 10 0 60470 6300.00000 0 15612181.066 20106707.819 -1768533.669 10 0 60470 7200.00000 0 15747178.490 20028799.018 1444938.920 10 0 60470 8100.00000 0 15613829.593 19647828.097 4630375.712 10 0 60470 9000.00000 0 15177208.378 19007179.980 7725982.900 10 0 60470 9900.00000 0 14413184.802 18158039.929 10671724.324 10 0 60470 10800.00000 0 13309662.340 17157116.545 13410481.758 10 0 60470 11700.00000 0 11867321.023 16064152.171 15889157.461 10 0 60470 12600.00000 0 10099834.105 14939325.489 18059698.011 10 0 60470 13500.00000 0 8033548.541 13840655.307 19880020.146 10 0 60470 14400.00000 0 5706641.564 12821514.188 21314821.337 10 0 60470 15300.00000 0 3167787.408 11928355.796 22336260.076 10 0 60470 16200.00000 0 474388.339 11198750.716 22924493.294 10 0 60470 17100.00000 0 -2309557.922 10659812.602 23068060.999 10 0 60470 18000.00000 0 -5115867.262 10327080.244 22764110.894 10 0 60470 18900.00000 0 -7874756.227 10203902.236 22018458.584 10 0 60470 19800.00000 0 -10517501.049 10281350.057 20845481.856 10 0 60470 20700.00000 0 -12979059.457 10538663.482 19267850.447 10 0 60470 21600.00000 0 -15200547.288 10944210.029 17316095.680 10 0 60470 22500.00000 0 -17131467.654 11456918.636 15028027.349 10 0 60470 23400.00000 0 -18731600.197 12028127.775 12448008.147 10 0 60470 24300.00000 0 -19972471.886 12603770.531 9626098.857 10 0 60470 25200.00000 0 -20838347.932 13126804.706 6617090.173 10 0 60470 26100.00000 0 -21326701.308 13539785.267 3479439.608 10 0 60470 27000.00000 0 -21448141.201 13787470.010 274134.062 10 0 60470 27900.00000 0 -21225803.477 13819347.564 -2936499.594 10 0 60470 28800.00000 0 -20694229.056 13591979.759 -6090012.185 10 0 60470 29700.00000 0 -19897777.855 13071058.076 -9125053.724 10 0 60470 30600.00000 0 -18888645.746 12233085.849 -11982574.113 10 0 60470 31500.00000 0 -17724568.870 11066613.730 -14606978.772 10 0 60470 32400.00000 0 -16466312.913 9572974.912 -16947215.984 10 0 60470 33300.00000 0 -15175053.941 7766487.809 -18957774.234 10 0 60470 34200.00000 0 -13909761.839 5674116.552 -20599569.781 10 0 60470 35100.00000 0 -12724697.025 3334602.520 -21840707.130 10 0 60470 36000.00000 0 -11667125.993 797102.491 -22657097.759 10 0 60470 36900.00000 0 -10775351.752 -1880610.328 -23032925.378 10 0 60470 37800.00000 0 -10077141.624 -4634307.845 -22960949.123 10 0 60470 38700.00000 0 -9588617.880 -7395741.593 -22442639.253 10 0 60470 39600.00000 0 -9313657.074 -10095249.257 -21488143.177 10 0 60470 40500.00000 0 -9243822.379 -12664425.219 -20116082.853 10 0 60470 41400.00000 0 -9358830.809 -15038744.549 -18353187.793 10 0 60470 42300.00000 0 -9627534.647 -17160031.837 -16233771.017 10 0 60470 43200.00000 0 -10009374.873 -18978672.808 -13799058.253 10 0 60470 44100.00000 0 -10456244.505 -20455477.435 -11096383.529 10 0 60470 45000.00000 0 -10914682.571 -21563117.777 -8178266.847 10 0 60470 45900.00000 0 -11328305.570 -22287081.605 -5101392.001 10 0 60470 46800.00000 0 -11640373.324 -22626103.133 -1925504.487 10 0 60470 47700.00000 0 -11796380.470 -22592054.023 1287748.862 10 0 60470 48600.00000 0 -11746563.923 -22209300.458 4476015.842 10 0 60470 49500.00000 0 -11448220.158 -21513554.381 7577447.095 10 0 60470 50400.00000 0 -10867734.325 -20550268.076 10531893.057 10 0 60470 51300.00000 0 -9982235.345 -19372640.255 13282066.498 10 0 60470 52200.00000 0 -8780806.904 -18039317.844 15774648.375 10 0 60470 53100.00000 0 -7265202.892 -16611890.113 17961315.951 10 0 60470 54000.00000 0 -5450036.479 -15152280.200 19799673.800 10 0 60470 54900.00000 0 -3362433.950 -13720142.996 21254070.372 10 0 60470 55800.00000 0 -1041166.539 -12370377.896 22296284.927 10 0 60470 56700.00000 0 1464704.904 -11150859.855 22906072.210 10 0 60470 57600.00000 0 4097617.538 -10100483.013 23071554.763 10 0 60470 58500.00000 0 6793653.685 -9247598.074 22789455.540 10 0 60470 59400.00000 0 9484959.882 -8608908.314 22065166.281 10 0 60470 60300.00000 0 12102338.898 -8188870.047 20912649.964 10 0 60470 61200.00000 0 14577908.291 -7979622.530 19354178.625 10 0 60470 62100.00000 0 16847716.088 -7961450.251 17419910.751 10 0 60470 63000.00000 0 18854205.559 -8103758.362 15147315.467 10 0 60470 63900.00000 0 20548426.802 -8366520.465 12580453.687 10 0 60470 64800.00000 0 21891903.095 -8702137.996 9769129.284 10 0 60470 65700.00000 0 22858073.949 -9057632.869 6767926.028 10 0 60470 66600.00000 0 23433254.246 -9377080.698 3635148.634 10 0 60470 67500.00000 0 23617069.023 -9604181.340 431688.413 10 0 60470 68400.00000 0 23422345.476 -9684857.390 -2780164.208 10 0 60470 69300.00000 0 22874466.633 -9569769.667 -5937936.585 10 0 60470 70200.00000 0 22010214.051 -9216642.086 -8980195.800 10 0 60470 71100.00000 0 20876148.587 -8592296.192 -11847750.994 10 0 60470 72000.00000 0 19526597.929 -7674307.879 -14484811.812 10 0 60470 72900.00000 0 18021336.271 -6452214.922 -16840079.641 10 0 60470 73800.00000 0 16423054.485 -4928222.967 -18867749.866 10 0 60470 74700.00000 0 14794727.823 -3117378.992 -20528405.242 10 0 60470 75600.00000 0 13196992.333 -1047203.853 -21789782.941 10 0 60470 76500.00000 0 11685640.422 1243201.696 -22627400.483 10 0 60470 77400.00000 0 10309340.734 3704540.825 -23025028.690 10 0 60470 78300.00000 0 9107677.673 6279137.155 -22975002.913 10 0 60470 79200.00000 0 8109592.160 8903108.729 -22478366.953 10 0 60470 80100.00000 0 7332288.180 11508809.257 -21544847.354 10 0 60470 81000.00000 0 6780649.831 14027435.383 -20192658.955 10 0 60470 81900.00000 0 6447192.159 16391691.869 -18448145.766 10 0 60470 82800.00000 0 6312546.498 18538404.109 -16345264.376 10 0 60470 83700.00000 0 6346458.650 20410969.710 -13924920.056 10 0 60470 84600.00000 0 6509256.680 21961547.531 -11234168.524 10 0 60470 85500.00000 0 6753725.385 23152893.518 -8325298.999 99